Other Surface Observations
Issued by NWS Tucson, AZ

Home | Current Version | Previous Version | Text Only | Print | Product List | Glossary On
Versions: 1 2 3 4 5 6 7 8 9 10 11 12 13 14 15 16 17 18 19 20 21 22 23 24 25 26 27 28 29 30 31 32 33 34 35 36 37 38 39 40 41 42 43 44 45 46 47 48 49 50
371
SXUS55 KTWC 280116
OSOTWC

WEATHER ROUNDUP FOR SOUTHEAST ARIZONA
NATIONAL WEATHER SERVICE TUCSON AZ
615 PM MST WED JUL 27 2016

AZZ504>506-514-280215-
LOCATION       SKY/WX    TMP DP  RH WIND       PRES   REMARKS
TUCSON         MOSUNNY  105  55  19 N12       29.86S HX 104
DAVIS-MONTHAN  MOSUNNY  102  56  21 N13       29.85S HX 101
CHILDRENS PARK N/A      N/A N/A  19 NW7               PIMA CO DEQ
ALVERNON/22ND  N/A      102 N/A N/A NW7               PIMA CO DEQ
CHERRY/GLENN   N/A      N/A N/A N/A N/A               PIMA CO DEQ
TANGERINE      N/A      104 N/A N/A N/A               PIMA CO DEQ
CONTL RANCH    N/A      106  54  18 NW10              PIMA CO DEQ
GRANT/1ST      N/A      103  54  20 NW8               PIMA CO DEQ
CRAYCROFT/22ND N/A      103  54  20 N/A               PIMA CO DEQ
GOLFLINKS/KOLB N/A      N/A N/A N/A N/A               PIMA CO DEQ
AJO/12TH       N/A      103  55  21 NW10              PIMA CO DEQ
SAGUARO EAST   N/A       39   2  21 W8                PIMA CO DEQ
FAIRGROUNDS    N/A      101 N/A N/A N/A               PIMA CO DEQ
SAGUARO        N/A      104  58  22 W10G19            *SABINO CYN
SAN CARLOS     N/A       96  62  33 SE7G10            *SAN CARLOS
GREEN VALLEY   N/A      101  54  21 NW7               PIMA CO DEQ
HORSE CAMP CYN N/A       87  55  34 NW10G26           *ARAVAIPA CYN
RINCON MTNS    NOT AVBL
$$

AZZ509>511-280215-
LOCATION       SKY/WX    TMP DP  RH WIND       PRES   REMARKS
SAFFORD        CLOUDY    84  62  47 E10       29.93R
STRAY HORSE    N/A       71  62  74 NW3               *
TRAIL CABIN    N/A       69  54  59 E10G22            *N OF GRANVILLE
BLACK HILLS    NOT AVBL
DRY LAKE       N/A       75  57  54 SW3               *NATANES MTNS
NOON CREEK     N/A       84  53  34 SW3G10            *PINALENO MTNS
COLUMBINE      N/A       59  51  76 CALM              *PINALENO MTNS
GUTHRIE        N/A       73  52  48 E7G11             *SW OF GUTHRIE
$$

AZZ502-503-513-280215-
LOCATION       SKY/WX    TMP DP  RH WIND       PRES   REMARKS
NOGALES        TSTM      73  66  78 NW9G20    30.05S VSB 1/4
SELLS          N/A      103  60  25 SW8G13            *
SASABE         N/A       94  60  32 W7G11             *ALTAR VLY
HOPKINS        N/A       80  55  42 NW8G15            *SANTA RITA MTNS
CARR CYN       N/A       66  61  84 SW8G20            *W OF HEREFORD
$$

AZZ507-508-512-280215-
LOCATION       SKY/WX    TMP DP  RH WIND       PRES   REMARKS
SIERRA VISTA   LGT RAIN  77  68  73 N6        30.09R
DOUGLAS        TSTM      73  63  70 E26G47    30.05R SQUALL
EMPIRE MTNS    NOT AVBL
MULESHOE RANCH N/A       69  60  73 NE17G30           *PRESERVE
HEADQUARTERS   NOT AVBL
$$

.............................NOTES.............................
THIS IS AN AUTOMATED COLLECTIVE WITH MINIMAL QUALITY CONTROL.
PIMA CO DEQ SITES HAVE NONSTANDARD WIND SENSOR HEIGHTS.
PIMA CO DEQ SITES DO NOT REPORT WIND GUSTS.
* INDICATES WIND SENSORS LOCATED AT 20 FEET INSTEAD OF 33 FEET.
..............................KEY..............................
SKY/WX - SKY CONDITION/WEATHER
TMP    - TEMPERATURE IN FAHRENHEIT
DP     - DEWPOINT IN FAHRENHEIT
RH     - RELATIVE HUMIDITY IN PERCENT
WIND   - DIRECTION AND SPEED IN MILES PER HOUR (MPH)
VRB    - VARIABLE WIND DIRECTION
PRES   - MEAN SEA LEVEL PRESSURE IN INCHES OF MERCURY
         F - FALLING PRESSURE   R - RISING PRESSURE
         S - STEADY PRESSURE
VSB    - VISIBILITY IN MILES
HX     - HEAT INDEX IN FAHRENHEIT
WCI    - WIND CHILL INDEX IN FAHRENHEIT
N/A    - NOT AVAILABLE
AFB    - AIR FORCE BASE
         DAVIS-MONTHAN IS DAVIS-MONTHAN AIR FORCE BASE
CYN    - CANYON
MTNS   - MOUNTAINS
NCA    - NATIONAL CONSERVATION AREA
NR     - NEAR
VLY    - VALLEY
CONTL  - CONTINENTAL
PIMA CO DEQ - PIMA COUNTY DEPT OF ENVIRONMENTAL QUALITY



USA.gov is the U.S. government's official web portal to all federal, state and local government web resources and services.